Voltar ao catálogo

STARLINK-11289

AtivoComunicaçõesVLEO
NORAD 60991·PAYLOAD·🇺🇸 United States

Lançado Sep 5, 2024 de Cape Canaveral Space Force Station

Loading…

Próximas Passagens (próximas 24 horas)

TLE

AtualizadoSource: CelesTrak SupGP

Época: Sep 14, 2026, 14:54 UTC

1 60991C 24158B   26257.62131944  .00018609  00000+0  15313-3 0  2573
2 60991  53.1569  69.6898 0001114  92.3886 186.2926 15.69724832    17

Acompanhe STARLINK-11289 em tempo real com AllMySat

Download on the App Store